Pagrindinis puslapis
METAR-TAF:

METAR-TAF

Oro uostai :

Kermanšahas, Iranas

platuma: 34-16N, ilguma: 047-07E, Aukštis: 1320 m

Dabartinis oras

Ataskaita buvo paskelbta 25 minutes, ne 05:30 UTC
Vėjas 2 kt nuo kintamojo kryptimis
Temperatūra 28°C
Drėgmė 16%
Slėgis 1011 hPa
Matomumas 10 km arba daugiau
nėra debesų žemiau 1500 m ir nėra kamuolinių lietaus debesų

METAR: OICC 130530Z VRB02KT CAVOK 28/00 Q1010 A2984

Laikas: 10:25 (05:55 UTC)


TAF: trūkstamas

Orai ataskaitas ir orų prognozės (METAR, TAF).

turimą stotys yra geltonos ir raudonos taškus žemėlapyje.

Perkelti pele per norėdami pamatyti stoties vardą.

Tada spustelėkite, norėdami matyti oro stebėjimo ir prognozės.

Norėdami pakeisti žemėlapį: spustelėkite ant žalios mygtukų su juodo kryžiaus žemyn,; žalią mygtuką su brūkšneliu, jei norite nutolinti; arba žalių rodyklių gretimoms žemėlapius.


METAR-TAF: